Regional Weather Roundup
Issued by NWS Cleveland, OH

Home | Current Version | Previous Version | Graphics & Text | Print | Product List | Glossary On
Versions: 1 2 3 4 5 6 7 8 9 10 11 12 13 14 15 16 17 18 19 20 21 22 23 24 25 26 27 28 29 30 31 32 33 34 35 36 37 38 39 40 41 42 43 44 45 46 47 48 49 50
000
ASUS41 KCLE 071010
RWRCLE
OHIO REGIONAL WEATHER ROUNDUP
NATIONAL WEATHER SERVICE CLEVELAND, OH
600 AM EDT TUE JUL 07 2015

NOTE: "FAIR" INDICATES FEW OR NO CLOUDS BELOW 12,000 FEET WITH NO
SIGNIFICANT WEATHER AND/OR OBSTRUCTIONS TO VISIBILITY.

OHZ001>008-015>018-024>027-034-035-043-044-071100-
   NORTHWEST OHIO

CITY           SKY/WX    TMP DP  RH WIND       PRES   REMARKS
DEFIANCE       CLOUDY    74  70  87 S6        29.89S
FINDLAY        CLOUDY    72  68  87 S10       29.92S FOG
TOLEDO EXPRESS CLOUDY    72  68  87 S10       29.88S
TOLEDO EXEC    CLOUDY    73  66  78 S9        29.90S
LIMA           CLOUDY    72  69  90 S9        29.94S
$$

OHZ009>014-019>023-028>033-038-089-071100-
   NORTHEAST OHIO

CITY           SKY/WX    TMP DP  RH WIND       PRES   REMARKS
CLE-HOPKINS    MOCLDY    71  63  75 S12       29.97R
CLE-LAKEFRONT  MOCLDY    73  63  70 S13       29.93S
CUY CO. ARPT   NOT AVBL
LORAIN-ELYRIA  MOCLDY    69  63  81 S8        29.95S
ASHTABULA      CLEAR     67  65  93 S7        29.98R FOG
AKRON-CANTON   PTCLDY    68  63  84 S8        30.00S
WOOSTER        PTCLDY    65  62  90 S5        30.00R
MANSFIELD      PTCLDY    67  65  93 S8        29.99R
YOUNGSTOWN     PTCLDY    67  64  90 S7        30.00S
$$

OHZ042-051>053-060>062-070>072-077>081-071100-
  SOUTHWEST OHIO

CITY           SKY/WX    TMP DP  RH WIND       PRES   REMARKS
CINC-COVINGTON CLOUDY    73  70  90 S8        29.99S
CINC-LUNKEN    MOCLDY    71  70  96 SW5       29.99S
HAMILTON       CLOUDY    75  71  87 VRB3      29.98F
DAYTON         CLOUDY    74  70  87 SW12      29.98S
WRIGHT-PAT AFB CLOUDY    72  69  91 SE7       29.97S
DAYTON GENERAL CLOUDY    72  69  90 S7        29.98S
WILMINGTON     MOCLDY    70  67  90 S8        30.00S
$$

OHZ036-037-039>041-045>050-054>059-063>069-073>076-082>088-071100-
  CENTRAL AND SOUTHEAST OHIO

CITY           SKY/WX    TMP DP  RH WIND       PRES   REMARKS
COLUMBUS       CLOUDY    70  67  90 S7        29.99S
OSU AIRPORT    PTCLDY    70  67  90 S9        29.99S
BOLTON FIELD   MOCLDY    68  67  98 S6        30.00S FOG
RICKENBACK AFB MOCLDY    68  66  92 S7        30.00R FOG
NEWARK         PTCLDY    65  63  93 CALM      30.01R FOG
MARION         CLOUDY    71  67  87 S10       29.98R FOG
LANCASTER      PTCLDY    69  66  90 S3        30.01S FOG
ZANESVILLE     NOT AVBL
NEW PHILLY     NOT AVBL
$$


USA.gov is the U.S. government's official web portal to all federal, state and local government web resources and services.